Buffalo, NY

12:26 PM EST on November 22, 2019 (GMT -0500)
Buffalo Niagara International

Weather History for KBUF - September, 2019

Change the Weather History Date:

Tuesday, September 10, 2019

  Actual Average Record
Temperature  
Mean Temperature 67 °F 64 °F  
Max Temperature 81 °F 73 °F 90 °F (1955)
Min Temperature 53 °F 56 °F 36 °F (1883)
Degree Days  
Heating Degree Days 0 3  
Month to date heating degree days 13 21  
Since 1 July heating degree days 16 48  
Cooling Degree Days 2 2  
Month to date cooling degree days 14 29  
Year to date cooling degree days 559 516  
Growing Degree Days 17 (Base 50)    
Moisture  
Dew Point 57 °F    
Average Humidity 69    
Maximum Humidity 86    
Minimum Humidity 51    
Precipitation  
Precipitation 0.00 in 0.12 in 1.56 in (1946)
Month to date precipitation 1.85 1.15  
Year to date precipitation 30.22 26.31  
Snow  
Snow 0.00 in 0.00 in 0.00 in ()
Month to date snowfall 0.0 0.0  
Since 1 July snowfall 0.0 0.0  
Since 1 September snowfall 0.0 0.0  
Snow Depth 0.00 in    
Sea Level Pressure  
Sea Level Pressure 30.19 in    
Wind  
Wind Speed 10 mph (South)    
Max Wind Speed 21 mph    
Max Gust Speed 26 mph    
Visibility 10 miles    
Events      
T = Trace of Precipitation, MM = Missing Value Source: NWS Daily Summary

Daily Weather History Graph

Daily Weather History Graph

Search for Another Location

Airport or City:

Astronomy

Sep. 10, 2019 Rise Set
Actual Time 6:48 AM EDT 7:34 PM EDT
Civil Twilight 6:20 AM EDT 8:02 PM EDT
Nautical Twilight 5:46 AM EDT 8:36 PM EDT
Astronomical Twilight 5:10 AM EDT 9:11 PM EDT
Moon 6:15 PM EDT (9/10) 3:06 AM EDT (9/10)
Length of Visible Light 13h 42m
Length of Day
12h 45m
Waxing Gibbous, 89% of the Moon is Illuminated
Sep 10
Waxing Gibbous
Sep 14
Full
Sep 21
Last Quarter
Sep 28
New
Oct 5
First Quarter

Hourly Weather History & Observations

Time (EDT) Temp. Heat Index Dew Point Humidity Pressure Visibility Wind Dir Wind Speed Gust Speed Precip Events Conditions
12:54 AM 55.0 °F - 48.0 °F 77% 30.30 in 10.0 mi East 5.8 mph - N/A   Mostly Cloudy
1:54 AM 54.0 °F - 48.0 °F 80% 30.30 in 10.0 mi East 5.8 mph - N/A   Scattered Clouds
2:54 AM 53.1 °F - 48.0 °F 83% 30.29 in 10.0 mi ENE 4.6 mph - N/A   Scattered Clouds
3:54 AM 53.1 °F - 48.0 °F 83% 30.28 in 10.0 mi ENE 6.9 mph - N/A   Partly Cloudy
4:54 AM 54.0 °F - 48.9 °F 83% 30.25 in 10.0 mi ESE 4.6 mph - N/A   Partly Cloudy
5:54 AM 54.0 °F - 48.9 °F 83% 30.25 in 10.0 mi ESE 5.8 mph - N/A   Scattered Clouds
6:54 AM 53.1 °F - 48.9 °F 86% 30.25 in 10.0 mi ESE 4.6 mph - N/A   Scattered Clouds
7:54 AM 55.9 °F - 51.1 °F 84% 30.27 in 10.0 mi SSE 4.6 mph - N/A   Scattered Clouds
8:54 AM 60.1 °F - 53.1 °F 78% 30.26 in 10.0 mi South 5.8 mph - N/A   Mostly Cloudy
9:54 AM 66.0 °F - 54.0 °F 65% 30.26 in 10.0 mi SSW 8.1 mph - N/A   Mostly Cloudy
10:54 AM 71.1 °F - 55.9 °F 59% 30.23 in 10.0 mi South 4.6 mph - N/A   Scattered Clouds
11:54 AM 75.9 °F - 57.0 °F 52% 30.21 in 10.0 mi WSW 10.4 mph - N/A   Partly Cloudy
12:54 PM 79.0 °F - 59.0 °F 50% 30.18 in 10.0 mi SSW 11.5 mph - N/A   Scattered Clouds
1:54 PM 78.1 °F - 60.1 °F 54% 30.19 in 10.0 mi SW 13.8 mph - N/A   Mostly Cloudy
2:54 PM 81.0 °F 81.6 °F 60.1 °F 49% 30.17 in 10.0 mi WSW 15.0 mph - N/A   Scattered Clouds
2:57 PM 80.1 °F 80.9 °F 60.1 °F 50% 30.17 in 10.0 mi WSW 13.8 mph - N/A   Mostly Cloudy
3:54 PM 80.1 °F 81.1 °F 61.0 °F 52% 30.15 in 10.0 mi SW 13.8 mph - N/A   Mostly Cloudy
4:54 PM 79.0 °F - 62.1 °F 56% 30.15 in 10.0 mi West 11.5 mph - N/A   Mostly Cloudy
5:54 PM 78.1 °F - 62.1 °F 58% 30.12 in 10.0 mi SW 15.0 mph - N/A   Mostly Cloudy
6:54 PM 75.9 °F - 62.1 °F 62% 30.11 in 10.0 mi SW 12.7 mph - N/A   Mostly Cloudy
7:54 PM 73.0 °F - 63.0 °F 71% 30.09 in 10.0 mi SSW 9.2 mph - N/A   Mostly Cloudy
8:54 PM 73.9 °F - 64.0 °F 71% 30.09 in 10.0 mi SSW 9.2 mph - N/A   Mostly Cloudy
9:54 PM 77.0 °F - 63.0 °F 62% 30.08 in 10.0 mi SSW 13.8 mph - N/A   Mostly Cloudy
10:54 PM 77.0 °F - 63.0 °F 62% 30.06 in 10.0 mi SSW 15.0 mph - N/A   Mostly Cloudy
11:54 PM 77.0 °F - 63.0 °F 62% 30.06 in 10.0 mi SSW 16.1 mph - N/A   Mostly Cloudy